Flag for U.S.A. Weather past 2 weeks in Shreveport, Louisiana, U.S.A.

Now
60 °F

Mostly cloudy.


Feels Like: 60 °F
Forecast: 42 / 64 °F
Wind: 13 mph from Northwest

Location: Shreveport Regional Airport

Current Time: Feb 1, 2015 at 2:44:55 PM

Latest Report: Feb 1, 2015 at 1:56 PM


Visibility: 10 mi

Pressure: 29.85 "Hg

Humidity: 90%

Dew point: 57 °F

Location of ShreveportLocation

Historic Weather in Shreveport — Graph

°F

Shreveport temperature yesterday

Maximum temperature yesterday: 58 °F (at 4:56 PM)
Minimum temperature yesterday: 42 °F (at 2:56 AM)
Average temperature yesterday: 51 °F

Past Weeks' High & Low Weather Summary

 TemperatureHumidityPressure
High76 °F (Jan 27, 2:56 PM)100% (Jan 20, 7:56 AM)30.51 "Hg (Jan 20, 7:56 AM)
Low30 °F (Jan 24, 2:56 AM)15% (Jan 18, 2:56 PM)29.82 "Hg (Feb 1, 11:56 AM)
Average52 °F62%30.12 "Hg
* Reported Jan 17 1:56 PM — Feb 1 1:56 PM, Shreveport, Weather by CustomWeather, © 2014

Note: Actual official high and low records may vary slightly from our data, if they occured in-between our weather recording intervals... More about our weather records

Advertising

Shreveport weather history for previous 24 hours

 ConditionsComfort  
Time TempWeatherWind HumidityBarometerVisibility
1:56 PM
Feb 1
60 °FMostly cloudy.13 mph90%29.85 "Hg10 mi
12:56 PM60 °FMostly cloudy.16 mph90%29.84 "Hg10 mi
11:56 AM68 °FMostly cloudy.15 mph76%29.82 "Hg10 mi
10:56 AM65 °FOvercast.8 mph85%29.85 "Hg6 mi
9:56 AM62 °FFog.10 mph90%29.86 "Hg5 mi
8:56 AM60 °FFog.9 mph93%29.87 "Hg4 mi
7:56 AM58 °FFog.9 mph93%29.88 "Hg4 mi
6:56 AM57 °FLow clouds.9 mph93%29.88 "Hg7 mi
5:56 AM56 °FOvercast.12 mph93%29.88 "Hg8 mi
4:56 AM56 °FOvercast.13 mph90%29.89 "Hg10 mi
3:56 AM56 °FOvercast.10 mph87%29.90 "Hg10 mi
2:56 AM55 °FLight rain. Mostly cloudy.9 mph87%29.93 "Hg10 mi
1:56 AM56 °FMostly cloudy.9 mph77%29.95 "Hg10 mi
12:56 AM57 °FMostly cloudy.15 mph69%29.94 "Hg10 mi
11:56 PM
Jan 31
56 °FLight rain. Mostly cloudy.15 mph67%29.96 "Hg10 mi
10:56 PM56 °FMostly cloudy.14 mph62%30.00 "Hg10 mi
9:56 PM56 °FMostly cloudy.12 mph60%30.03 "Hg7 mi
8:56 PM56 °FMostly cloudy.10 mph55%30.05 "Hg9 mi
7:56 PM56 °FMostly cloudy.8 mph51%30.08 "Hg10 mi
6:56 PM56 °FOvercast.6 mph47%30.07 "Hg10 mi
5:56 PM57 °FOvercast.8 mph44%30.09 "Hg10 mi
4:56 PM58 °FMostly cloudy.12 mph41%30.08 "Hg10 mi
3:56 PM57 °FMostly cloudy.8 mph41%30.09 "Hg10 mi
2:56 PM57 °FMostly cloudy.7 mph39%30.12 "Hg10 mi
Weather by CustomWeather, © 2014

See weather overviewHow to use our weather pages